Date String (YYYY-MM-DD hh:mm:ss) UTC,Instrument flags,Ambient pressure (hPa),Sample flow (lpm),Bypass flow (lpm),Sample temperature (°C),Ambient temperature (°C),ASC tube jacket temperature (°C),LED temperature (°C),Box temperature (°C),Sample RH (%),Span deviation,Mass concentration (μg/m³),Mass concentration (μg/m³),Mass concentration (μg/m³)
DateTimeUTC,F1_M11,P_M11,Q1_M11,Q2_M11,T1_M11,T2_M11,T3_M11,T4_M11,T5_M11,U1_M11,ZSPAN_M11,X0_M11,X2_M11,X1_M11
2023-02-15 20:00:00,,0822.2,5.05,0.00,23.2,23.7,00.0,31.9,25.2,07.5,0000.0,0004.49,0002.25,0001.89
2023-02-15 20:01:00,,0822.2,5.02,0.00,23.2,23.1,00.0,31.9,25.1,07.6,0000.0,0004.49,0002.31,0001.90
2023-02-15 20:02:00,,0822.2,5.00,0.00,23.2,22.5,00.0,32.0,24.9,07.6,0000.0,0004.40,0002.33,0001.91
2023-02-15 20:03:00,,0822.2,5.00,0.00,23.2,22.1,00.0,32.0,24.9,07.6,0000.0,0004.51,0002.32,0001.89
2023-02-15 20:04:00,,0822.2,5.00,0.00,23.1,21.8,00.0,32.0,24.8,07.6,0000.0,0004.54,0002.33,0001.89
2023-02-15 20:05:00,,0822.2,5.00,0.00,23.1,21.5,00.0,32.0,24.8,07.6,0000.0,0004.40,0002.32,0001.90
2023-02-15 20:06:00,,0822.2,4.99,0.00,23.1,21.3,00.0,32.0,24.7,07.6,0000.0,0004.31,0002.31,0001.89
2023-02-15 20:07:00,,0822.2,4.98,0.00,23.0,21.2,00.0,32.0,24.7,07.6,0000.0,0004.33,0002.34,0001.88
2023-02-15 20:08:00,,0822.2,5.00,0.00,23.0,21.1,00.0,31.9,24.6,07.6,0000.0,0004.65,0002.35,0001.87
2023-02-15 20:09:00,,0822.3,5.00,0.00,22.9,21.4,00.0,31.9,24.6,07.6,0000.0,0005.78,0002.34,0001.86
2023-02-15 20:10:00,,0822.3,5.01,0.00,23.0,22.6,00.0,31.9,24.9,07.5,0000.0,0005.79,0002.32,0001.85
2023-02-15 20:11:00,,0822.3,4.94,0.00,23.1,23.2,00.0,31.9,25.0,07.5,0000.0,0006.08,0002.35,0001.85
2023-02-15 20:12:00,,0822.3,5.03,0.00,23.2,22.8,00.0,31.9,25.0,07.4,0000.0,0006.05,0002.31,0001.83
2023-02-15 20:13:00,,0822.3,5.02,0.00,23.1,22.3,00.0,31.9,24.9,07.5,0000.0,0005.44,0002.23,0001.81
2023-02-15 20:14:00,,0822.3,4.99,0.00,23.1,21.9,00.0,32.0,24.8,07.5,0000.0,0005.34,0002.23,0001.80
2023-02-15 20:15:00,,0822.3,5.01,0.00,23.1,21.6,00.0,31.9,24.8,07.4,0000.0,0005.27,0002.21,0001.79
2023-02-15 20:16:00,,0822.3,5.01,0.00,23.0,21.4,00.0,31.9,24.7,07.4,0000.0,0005.22,0002.19,0001.78
2023-02-15 20:17:00,,0822.3,5.02,0.00,23.0,21.3,00.0,31.9,24.6,07.5,0000.0,0005.23,0002.19,0001.78
2023-02-15 20:18:00,,0822.3,5.01,0.00,22.9,21.2,00.0,31.9,24.6,07.4,0000.0,0005.15,0002.17,0001.78
2023-02-15 20:19:00,,0822.3,4.98,0.00,23.0,22.0,00.0,31.9,24.8,07.4,0000.0,0004.82,0002.14,0001.78
2023-02-15 20:20:00,,0822.3,4.94,0.00,23.1,23.1,00.0,31.8,25.0,07.5,0000.0,0003.83,0002.17,0001.78
2023-02-15 20:21:00,,0822.3,5.00,0.00,23.2,23.1,00.0,31.9,25.1,07.5,0000.0,0003.74,0002.19,0001.77
2023-02-15 20:22:00,,0822.3,5.02,0.00,23.2,22.6,00.0,31.9,25.0,07.5,0000.0,0003.70,0002.21,0001.76
2023-02-15 20:23:00,,0822.3,5.00,0.00,23.1,22.2,00.0,31.9,24.9,07.6,0000.0,0004.66,0002.21,0001.77
2023-02-15 20:24:00,,0822.3,4.98,0.00,23.1,21.8,00.0,31.9,24.8,07.7,0000.0,0004.85,0002.25,0001.78
2023-02-15 20:25:00,,0822.3,5.01,0.00,23.0,21.5,00.0,31.9,24.7,07.7,0000.0,0004.66,0002.23,0001.78
2023-02-15 20:26:00,,0822.3,5.00,0.00,23.0,21.3,00.0,31.9,24.7,07.6,0000.0,0004.75,0002.28,0001.79
2023-02-15 20:27:00,,0822.3,4.97,0.00,23.0,21.2,00.0,31.9,24.6,07.5,0000.0,0004.82,0002.32,0001.80
2023-02-15 20:28:00,,0822.3,5.00,0.00,22.9,21.1,00.0,31.9,24.6,07.4,0000.0,0004.96,0002.34,0001.81
2023-02-15 20:29:00,,0822.3,5.00,0.00,23.0,21.7,00.0,31.9,24.7,07.4,0000.0,0005.07,0002.36,0001.81
2023-02-15 20:30:00,,0822.3,5.02,0.00,23.1,22.8,00.0,31.8,25.0,07.4,0000.0,0005.12,0002.40,0001.80
2023-02-15 20:31:00,,0822.4,5.10,0.00,23.2,23.5,00.0,31.9,25.1,07.4,0000.0,0005.00,0002.36,0001.79
2023-02-15 20:32:00,,0822.4,5.02,0.00,23.2,23.1,00.0,31.9,25.1,07.4,0000.0,0004.97,0002.35,0001.78
2023-02-15 20:33:00,,0822.3,4.99,0.00,23.2,22.6,00.0,31.9,25.0,07.4,0000.0,0004.78,0002.32,0001.77
2023-02-15 20:34:00,,0822.4,5.00,0.00,23.2,22.1,00.0,32.0,24.9,07.4,0000.0,0003.72,0002.34,0001.79
2023-02-15 20:35:00,,0822.4,5.00,0.00,23.1,21.8,00.0,32.0,24.8,07.5,0000.0,0003.43,0002.33,0001.82
2023-02-15 20:36:00,,0822.4,4.98,0.00,23.1,21.5,00.0,32.0,24.7,07.5,0000.0,0003.90,0002.38,0001.84
2023-02-15 20:37:00,,0822.4,4.98,0.00,23.0,21.3,00.0,32.0,24.6,07.4,0000.0,0004.06,0002.38,0001.86
2023-02-15 20:38:00,,0822.4,4.99,0.00,23.0,21.1,00.0,31.9,24.6,07.4,0000.0,0004.08,0002.39,0001.89
2023-02-15 20:39:00,,0822.4,5.01,0.00,22.9,21.1,00.0,31.9,24.6,07.5,0000.0,0004.02,0002.41,0001.91
2023-02-15 20:40:00,,0822.5,5.00,0.00,23.0,22.1,00.0,31.9,24.8,07.6,0000.0,0003.91,0002.39,0001.93
2023-02-15 20:41:00,,0822.4,4.98,0.00,23.1,23.2,00.0,31.9,25.0,07.5,0000.0,0003.83,0002.36,0001.95
2023-02-15 20:42:00,,0822.4,5.02,0.00,23.2,23.5,00.0,31.9,25.1,07.3,0000.0,0003.93,0002.39,0001.98
2023-02-15 20:43:00,,0822.4,4.99,0.00,23.2,23.0,00.0,31.9,25.0,07.2,0000.0,0003.91,0002.40,0002.01
2023-02-15 20:44:00,,0822.4,5.01,0.00,23.2,22.5,00.0,32.0,25.0,07.3,0000.0,0004.04,0002.43,0002.03
2023-02-15 20:45:00,,0822.4,4.99,0.00,23.2,22.0,00.0,32.0,24.9,07.3,0000.0,0004.15,0002.43,0002.03
2023-02-15 20:46:00,,0822.4,4.97,0.00,23.1,21.7,00.0,32.0,24.8,07.3,0000.0,0004.33,0002.45,0002.02
2023-02-15 20:47:00,,0822.4,4.98,0.00,23.1,21.5,00.0,32.0,24.8,07.2,0000.0,0003.91,0002.42,0002.01
2023-02-15 20:48:00,,0822.4,5.00,0.00,23.0,21.3,00.0,32.0,24.7,07.3,0000.0,0003.72,0002.40,0002.01
2023-02-15 20:49:00,,0822.4,5.00,0.00,23.0,21.1,00.0,32.0,24.7,07.3,0000.0,0003.71,0002.38,0002.00
2023-02-15 20:50:00,,0822.4,5.01,0.00,23.0,21.3,00.0,31.9,24.7,07.4,0000.0,0004.10,0002.38,0002.01
2023-02-15 20:51:00,,0822.4,4.97,0.00,23.1,22.4,00.0,31.9,24.9,07.4,0000.0,0004.12,0002.39,0002.01
2023-02-15 20:52:00,,0822.4,4.94,0.00,23.2,23.5,00.0,31.9,25.1,07.3,0000.0,0004.19,0002.40,0002.01
2023-02-15 20:53:00,,0822.4,4.95,0.00,23.3,23.4,00.0,31.9,25.2,07.3,0000.0,0004.38,0002.44,0002.02
2023-02-15 20:54:00,,0822.4,4.96,0.00,23.2,22.8,00.0,32.0,25.1,07.4,0000.0,0004.41,0002.46,0002.04
2023-02-15 20:55:00,,0822.4,5.01,0.00,23.2,22.4,00.0,32.0,25.0,07.4,0000.0,0004.35,0002.44,0002.04
2023-02-15 20:56:00,,0822.4,5.01,0.00,23.2,22.0,00.0,32.0,24.9,07.4,0000.0,0005.13,0002.46,0002.05
2023-02-15 20:57:00,,0822.4,5.01,0.00,23.1,21.7,00.0,32.0,24.8,07.3,0000.0,0004.99,0002.44,0002.06
2023-02-15 20:58:00,,0822.4,5.03,0.00,23.1,21.4,00.0,32.0,24.7,07.3,0000.0,0005.35,0002.48,0002.08
2023-02-15 20:59:00,,0822.4,4.99,0.00,23.0,21.2,00.0,32.0,24.6,07.4,0000.0,0005.30,0002.48,0002.08
